When you browse on this site, cookies collect data to enhance your experience and personalize the content and advertising you see.
Visit our Privacy Policy to learn more. By continuing to use the site, you agree to this use of cookies and data.
  • In Spain
  • List of Countries
  • For 7 days
  • Water Temperature
  • Weather Map
  • Weather Widgets
  • user-avatar
    Login

    Hourly Weather Gweru

    Today, 20 October, Sunday

    Time Temperature Precipitation Wind Pressure Humidity
    00:00 +19°C° 0 mm 2 mps 643 mmHg 34%
    01:00 +18°C° 0 mm 2 mps 643 mmHg 38%
    02:00 +16°C° 0 mm 2 mps 643 mmHg 42%
    03:00 +16°C° 0 mm 2 mps 642 mmHg 44%
    04:00 +16°C° 0 mm 2 mps 642 mmHg 46%
    05:00 +15°C° 0 mm 2 mps 642 mmHg 48%
    06:00 +19°C° 0 mm 2 mps 644 mmHg 40%
    07:00 +24°C° 0 mm 2 mps 645 mmHg 31%
    08:00 +27°C° 0 mm 2 mps 646 mmHg 23%
    09:00 +30°C° 0 mm 3 mps 647 mmHg 18%
    10:00 +33°C° 0 mm 4 mps 647 mmHg 13%
    11:00 +35°C° 0 mm 4 mps 647 mmHg 8%
    12:00 +35°C° 0 mm 5 mps 646 mmHg 8%
    13:00 +36°C° 0 mm 5 mps 646 mmHg 8%
    14:00 +36°C° 0 mm 5 mps 645 mmHg 7%
    15:00 +35°C° 0 mm 5 mps 645 mmHg 8%
    16:00 +34°C° 0 mm 5 mps 644 mmHg 9%
    17:00 +33°C° 0 mm 5 mps 644 mmHg 10%
    18:00 +30°C° 0 mm 4 mps 644 mmHg 13%
    19:00 +27°C° 0 mm 4 mps 643 mmHg 17%
    20:00 +24°C° 0 mm 3 mps 643 mmHg 21%
    21:00 +22°C° 0 mm 3 mps 643 mmHg 23%
    22:00 +21°C° 0 mm 2 mps 643 mmHg 25%
    23:00 +20°C° 0 mm 2 mps 643 mmHg 27%

    Tomorrow, 21 October, Monday

    Time Temperature Precipitation Wind Pressure Humidity
    00:00 +20°C° 0 mm 2 mps 643 mmHg 29%
    01:00 +19°C° 0 mm 2 mps 642 mmHg 31%
    02:00 +18°C° 0 mm 2 mps 642 mmHg 32%
    03:00 +18°C° 0 mm 2 mps 641 mmHg 36%
    04:00 +18°C° 0 mm 2 mps 641 mmHg 40%
    05:00 +18°C° 0 mm 3 mps 641 mmHg 44%
    06:00 +21°C° 0 mm 3 mps 643 mmHg 38%
    07:00 +25°C° 0 mm 3 mps 644 mmHg 32%
    08:00 +29°C° 0 mm 3 mps 645 mmHg 26%
    09:00 +31°C° 0 mm 3 mps 645 mmHg 21%
    10:00 +35°C° 0 mm 3 mps 646 mmHg 16%
    11:00 +38°C° 0 mm 2 mps 646 mmHg 10%
    12:00 +38°C° 0 mm 3 mps 645 mmHg 10%
    13:00 +40°C° 0 mm 4 mps 644 mmHg 9%
    14:00 +40°C° 0 mm 5 mps 644 mmHg 8%
    15:00 +38°C° 0 mm 4 mps 643 mmHg 9%
    16:00 +37°C° 0 mm 4 mps 643 mmHg 9%
    17:00 +37°C° 0 mm 4 mps 642 mmHg 10%
    18:00 +34°C° 0 mm 3 mps 642 mmHg 13%
    19:00 +30°C° 0 mm 3 mps 642 mmHg 16%
    20:00 +27°C° 0 mm 2 mps 641 mmHg 19%
    21:00 +26°C° 0 mm 3 mps 642 mmHg 20%
    22:00 +26°C° 0 mm 3 mps 642 mmHg 22%
    23:00 +25°C° 0 mm 4 mps 642 mmHg 24%

    Day after tomorrow, 22 October, Tuesday

    Time Temperature Precipitation Wind Pressure Humidity
    00:00 +25°C° 0 mm 4 mps 642 mmHg 26%
    01:00 +25°C° 0 mm 4 mps 641 mmHg 28%
    02:00 +23°C° 0 mm 4 mps 641 mmHg 30%
    03:00 +23°C° 0 mm 4 mps 641 mmHg 31%
    04:00 +22°C° 0 mm 4 mps 641 mmHg 33%
    05:00 +22°C° 0 mm 4 mps 641 mmHg 34%
    06:00 +25°C° 0 mm 4 mps 642 mmHg 30%
    07:00 +28°C° 0 mm 5 mps 644 mmHg 26%
    08:00 +30°C° 0 mm 5 mps 645 mmHg 23%
    09:00 +34°C° 0 mm 4 mps 645 mmHg 20%
    10:00 +36°C° 0 mm 4 mps 646 mmHg 18%
    11:00 +38°C° 0 mm 3 mps 646 mmHg 16%
    12:00 +37°C° 0 mm 4 mps 645 mmHg 18%
    13:00 +37°C° 0 mm 5 mps 644 mmHg 20%
    14:00 +36°C° 0 mm 6 mps 643 mmHg 23%
    15:00 +35°C° 0 mm 6 mps 643 mmHg 25%
    16:00 +35°C° 0 mm 6 mps 642 mmHg 27%
    17:00 +34°C° 0 mm 6 mps 642 mmHg 29%
    18:00 +32°C° 0 mm 6 mps 642 mmHg 36%
    19:00 +29°C° 0 mm 5 mps 642 mmHg 42%
    20:00 +27°C° 0 mm 5 mps 642 mmHg 49%
    21:00 +26°C° 0 mm 5 mps 642 mmHg 53%
    22:00 +25°C° 0 mm 5 mps 642 mmHg 56%
    23:00 +23°C° 0 mm 5 mps 642 mmHg 60%

    23 October, Wednesday

    Time Temperature Precipitation Wind Pressure Humidity
    00:00 +21°C° 0 mm 4 mps 641 mmHg 68%
    01:00 +20°C° 0 mm 3 mps 641 mmHg 75%
    02:00 +19°C° 0 mm 2 mps 640 mmHg 82%
    03:00 +19°C° 0 mm 2 mps 640 mmHg 79%
    04:00 +19°C° 0 mm 3 mps 640 mmHg 75%
    05:00 +19°C° 0 mm 3 mps 641 mmHg 72%
    06:00 +22°C° 0 mm 4 mps 642 mmHg 60%
    07:00 +26°C° 0 mm 5 mps 643 mmHg 48%
    08:00 +29°C° 0 mm 6 mps 644 mmHg 35%
    09:00 +33°C° 0 mm 6 mps 644 mmHg 29%
    10:00 +36°C° 0 mm 5 mps 644 mmHg 22%
    11:00 +39°C° 0 mm 5 mps 645 mmHg 15%
    12:00 +38°C° 0 mm 4 mps 644 mmHg 15%
    13:00 +38°C° 0 mm 3 mps 643 mmHg 14%
    14:00 +38°C° 0 mm 2 mps 642 mmHg 14%
    15:00 +37°C° 0 mm 2 mps 642 mmHg 14%
    16:00 +37°C° 0 mm 3 mps 642 mmHg 14%
    17:00 +37°C° 0 mm 3 mps 641 mmHg 14%
    18:00 +35°C° 0 mm 2 mps 642 mmHg 17%
    19:00 +32°C° 0 mm 2 mps 642 mmHg 19%
    20:00 +30°C° 0 mm 2 mps 642 mmHg 21%
    21:00 +29°C° 0 mm 2 mps 642 mmHg 22%
    22:00 +28°C° 0 mm 3 mps 642 mmHg 24%
    23:00 +27°C° 0 mm 3 mps 642 mmHg 25%

    24 October, Thursday

    Time Temperature Precipitation Wind Pressure Humidity
    00:00 +26°C° 0 mm 3 mps 642 mmHg 28%
    01:00 +25°C° 0 mm 3 mps 641 mmHg 30%
    02:00 +25°C° 0 mm 2 mps 641 mmHg 33%
    03:00 +24°C° 0 mm 3 mps 641 mmHg 36%
    04:00 +22°C° 0 mm 3 mps 641 mmHg 38%
    05:00 +21°C° 0 mm 3 mps 641 mmHg 41%
    06:00 +25°C° 0 mm 4 mps 642 mmHg 37%
    07:00 +27°C° 0 mm 5 mps 643 mmHg 32%
    08:00 +29°C° 0 mm 6 mps 644 mmHg 28%
    09:00 +33°C° 0 mm 5 mps 644 mmHg 23%
    10:00 +36°C° 0 mm 4 mps 645 mmHg 18%
    11:00 +39°C° 0 mm 3 mps 645 mmHg 13%
    12:00 +39°C° 0 mm 3 mps 645 mmHg 12%
    13:00 +39°C° 0 mm 3 mps 644 mmHg 11%
    14:00 +39°C° 0 mm 2 mps 643 mmHg 11%
    15:00 +39°C° 0 mm 2 mps 643 mmHg 10%
    16:00 +39°C° 0 mm 3 mps 643 mmHg 10%
    17:00 +39°C° 0 mm 3 mps 643 mmHg 10%
    18:00 +36°C° 0 mm 3 mps 642 mmHg 12%
    19:00 +33°C° 0 mm 3 mps 642 mmHg 14%
    20:00 +29°C° 0 mm 3 mps 642 mmHg 16%
    21:00 +28°C° 0 mm 3 mps 642 mmHg 19%
    22:00 +27°C° 0 mm 3 mps 642 mmHg 22%
    23:00 +27°C° 0 mm 4 mps 642 mmHg 24%

    25 October, Friday

    Time Temperature Precipitation Wind Pressure Humidity
    00:00 +26°C° 0 mm 4 mps 642 mmHg 27%
    01:00 +25°C° 0 mm 4 mps 642 mmHg 29%
    02:00 +23°C° 0 mm 4 mps 641 mmHg 32%
    03:00 +23°C° 0 mm 4 mps 642 mmHg 34%
    04:00 +22°C° 0 mm 3 mps 642 mmHg 36%
    05:00 +21°C° 0 mm 3 mps 642 mmHg 38%
    06:00 +25°C° 0 mm 4 mps 643 mmHg 35%
    07:00 +28°C° 0 mm 5 mps 644 mmHg 32%
    08:00 +30°C° 0 mm 6 mps 645 mmHg 28%
    09:00 +34°C° 0 mm 5 mps 645 mmHg 24%
    10:00 +36°C° 0 mm 4 mps 645 mmHg 20%
    11:00 +38°C° 0 mm 3 mps 646 mmHg 16%
    12:00 +39°C° 0 mm 3 mps 645 mmHg 13%
    13:00 +41°C° 0 mm 2 mps 645 mmHg 11%
    14:00 +42°C° 0 mm 2 mps 644 mmHg 9%
    15:00 +41°C° 0 mm 2 mps 643 mmHg 10%
    16:00 +40°C° 0 mm 1 mps 643 mmHg 10%
    17:00 +39°C° 0 mm 1 mps 642 mmHg 10%
    18:00 +35°C° 0 mm 1 mps 642 mmHg 13%
    19:00 +32°C° 0 mm 1 mps 642 mmHg 15%
    20:00 +29°C° 0 mm 1 mps 641 mmHg 18%
    21:00 +28°C° 0 mm 2 mps 642 mmHg 20%
    22:00 +27°C° 0 mm 3 mps 642 mmHg 22%
    23:00 +26°C° 0 mm 4 mps 642 mmHg 24%
    Show more